Change the Weather History Date:

Monday, March 31, 2014

  Actual Average Record
Temperature  
Mean Temperature 55 °F 53 °F  
Max Temperature 61 °F 65 °F 85 °F (1991)
Min Temperature 48 °F 41 °F 20 °F (1994)
Degree Days  
Heating Degree Days 10 13  
Month to date heating degree days 702 546  
Since 1 July heating degree days 4500 4010  
Cooling Degree Days 0 0  
Month to date cooling degree days 0 4  
Year to date cooling degree days 0 4  
Growing Degree Days 4 (Base 50)    
Moisture  
Dew Point 39 °F    
Average Humidity 52    
Maximum Humidity 71    
Minimum Humidity 32    
Precipitation  
Precipitation 0.05 in 0.17 in 1.68 in (1998)
Month to date precipitation 3.22 4.29  
Year to date precipitation 5.07 9.85  
Sea Level Pressure  
Sea Level Pressure 29.95 in    
Wind  
Wind Speed 11 mph (South)    
Max Wind Speed 24 mph    
Max Gust Speed 31 mph    
Visibility 10 miles    
Events Rain , Thunderstorm    
T = Trace of Precipitation, MM = Missing Value Source: NWS Daily Summary

Daily Weather History Graph

Daily Weather History Graph

Search for Another Location

Airport or City:

Trip Planner

Search our weather history database for the weather conditions in past years. The results will help you decide how hot, cold, wet, or windy it might be!

Date:

Astronomy

Mar. 31, 2014 Rise Set
Actual Time 6:54 AM CDT 7:29 PM CDT
Civil Twilight 6:28 AM CDT 7:55 PM CDT
Nautical Twilight 5:58 AM CDT 8:26 PM CDT
Astronomical Twilight 5:26 AM CDT 8:57 PM CDT
Moon 7:20 AM CDT (3/31) 8:46 PM CDT (3/31)
Length of Visible Light 13h 26m
Length of Day
12h 34m
New Moon, 1% of the Moon is Illuminated
Mar 31
New Moon
Apr 7
First Quarter
Apr 15
Full
Apr 22
Last Quarter
Apr 29
New

Hourly Weather History & Observations

Time (CDT) Temp. Dew Point Humidity Pressure Visibility Wind Dir Wind Speed Gust Speed Precip Events Conditions
12:53 AM 48.0 °F 39.9 °F 74% 30.05 in 9.0 mi SSE 6.9 mph - N/A   Clear
1:53 AM 48.0 °F 39.9 °F 74% 30.03 in 9.0 mi South 6.9 mph - N/A   Clear
2:53 AM 48.9 °F 39.0 °F 69% 30.00 in 10.0 mi SSE 11.5 mph - N/A   Clear
3:53 AM 48.9 °F 39.9 °F 71% 29.99 in 10.0 mi SSE 11.5 mph - N/A   Clear
4:53 AM 48.0 °F 39.9 °F 74% 29.99 in 10.0 mi SSE 12.7 mph - N/A   Clear
5:53 AM 48.0 °F 39.9 °F 74% 29.98 in 10.0 mi SSE 10.4 mph - N/A   Clear
6:53 AM 48.0 °F 39.9 °F 74% 29.99 in 10.0 mi SSE 10.4 mph - N/A   Clear
7:53 AM 48.9 °F 39.9 °F 71% 30.00 in 10.0 mi SSE 11.5 mph - N/A   Clear
8:53 AM 51.1 °F 41.0 °F 68% 29.99 in 10.0 mi SSE 11.5 mph - N/A   Clear
9:53 AM 52.0 °F 41.0 °F 66% 30.00 in 10.0 mi SSE 10.4 mph - N/A   Mostly Cloudy
10:53 AM 57.9 °F 39.0 °F 49% 29.99 in 10.0 mi South 13.8 mph 27.6 mph N/A   Partly Cloudy
11:53 AM 59.0 °F 35.1 °F 41% 29.94 in 10.0 mi South 15.0 mph 25.3 mph N/A   Scattered Clouds
12:28 PM 61.0 °F 32.0 °F 34% 29.97 in 10.0 mi South 11.5 mph - N/A Thunderstorm Overcast
12:51 PM 60.8 °F 30.2 °F 31% 29.96 in 10.0 mi SSE 8.1 mph - N/A   Overcast
12:53 PM 61.0 °F 30.9 °F 32% 29.95 in 10.0 mi SSE 6.9 mph - N/A   Overcast
1:53 PM 60.1 °F 37.0 °F 42% 29.92 in 9.0 mi South 12.7 mph - 0.00 in Rain Light Rain
2:53 PM 61.0 °F 35.1 °F 38% 29.92 in 10.0 mi South 11.5 mph - 0.00 in   Mostly Cloudy
3:53 PM 55.9 °F 42.1 °F 60% 29.89 in 10.0 mi SSE 16.1 mph - 0.02 in Rain Light Rain
4:29 PM 55.0 °F 43.0 °F 64% 29.83 in 10.0 mi SSE 17.3 mph 25.3 mph 0.03 in Rain Light Rain
4:53 PM 57.0 °F 43.0 °F 59% 29.85 in 10.0 mi South 21.9 mph 31.1 mph 0.03 in   Partly Cloudy
5:53 PM 59.0 °F 43.0 °F 55% 29.88 in 10.0 mi South 15.0 mph 25.3 mph N/A   Partly Cloudy
6:53 PM 57.9 °F 43.0 °F 58% 29.90 in 10.0 mi SSW 11.5 mph - N/A   Mostly Cloudy
7:53 PM 57.0 °F 43.0 °F 59% 29.93 in 10.0 mi SSW 5.8 mph - N/A   Overcast
8:53 PM 55.0 °F 42.1 °F 62% 29.92 in 10.0 mi South 6.9 mph - N/A   Clear
9:53 PM 55.0 °F 42.1 °F 62% 29.94 in 10.0 mi South 8.1 mph - N/A   Clear
10:53 PM 55.0 °F 42.1 °F 62% 29.96 in 10.0 mi SW 4.6 mph - N/A   Overcast
11:53 PM 52.0 °F 43.0 °F 71% 29.97 in 10.0 mi WSW 4.6 mph - N/A   Partly Cloudy